Time,TemperatureF,DewpointF,PressureIn,WindDirection,WindDirectionDegrees,WindSpeedMPH,WindSpeedGustMPH,Humidity,HourlyPrecipIn,Conditions,Clouds,dailyrainin,SoftwareType,DateUTC
2013-07-22 00:01:00,74.0,64.0,30.00,West,270,0.0,0.0,71,0.00,,,0.00,,2013-07-22 04:01:00,
2013-07-22 00:12:00,74.0,64.0,30.00,West,270,0.0,0.0,72,0.00,,,0.00,,2013-07-22 04:12:00,
2013-07-22 00:33:00,73.0,64.0,30.00,West,270,0.0,0.0,73,0.00,,,0.00,,2013-07-22 04:33:00,
2013-07-22 00:43:00,73.0,64.0,30.00,West,270,0.0,0.0,74,0.00,,,0.00,,2013-07-22 04:43:00,
2013-07-22 01:02:00,73.0,64.0,30.00,West,270,0.0,0.0,74,0.00,,,0.00,,2013-07-22 05:02:00,
2013-07-22 01:11:00,72.0,64.0,30.00,West,270,0.0,0.0,75,0.00,,,0.00,,2013-07-22 05:11:00,
2013-07-22 01:32:00,72.0,64.0,29.99,West,270,0.0,0.0,76,0.00,,,0.00,,2013-07-22 05:32:00,
2013-07-22 01:43:00,72.0,64.0,29.99,West,270,0.0,0.0,77,0.00,,,0.00,,2013-07-22 05:43:00,
2013-07-22 02:01:00,72.0,65.0,29.99,West,270,0.0,0.0,78,0.00,,,0.00,,2013-07-22 06:01:00,
2013-07-22 02:11:00,72.0,65.0,29.99,West,270,0.0,0.0,78,0.00,,,0.00,,2013-07-22 06:11:00,
2013-07-22 02:33:00,71.0,65.0,29.99,West,270,0.0,0.0,80,0.00,,,0.00,,2013-07-22 06:33:00,
2013-07-22 02:43:00,71.0,65.0,29.99,West,270,0.0,0.0,81,0.00,,,0.00,,2013-07-22 06:43:00,
2013-07-22 03:01:00,70.0,64.0,29.98,West,270,0.0,0.0,82,0.00,,,0.00,,2013-07-22 07:01:00,
2013-07-22 03:12:00,70.0,64.0,29.98,West,270,0.0,0.0,82,0.00,,,0.00,,2013-07-22 07:12:00,
2013-07-22 03:33:00,70.0,65.0,29.98,West,270,0.0,0.0,84,0.00,,,0.00,,2013-07-22 07:33:00,
2013-07-22 03:43:00,69.0,64.0,29.98,West,270,0.0,0.0,84,0.00,,,0.00,,2013-07-22 07:43:00,
2013-07-22 04:02:00,69.0,64.0,29.98,West,270,0.0,0.0,85,0.00,,,0.00,,2013-07-22 08:02:00,
2013-07-22 04:11:00,69.0,64.0,29.98,West,270,0.0,0.0,85,0.00,,,0.00,,2013-07-22 08:11:00,
2013-07-22 04:32:00,68.0,64.0,29.98,West,270,0.0,0.0,86,0.00,,,0.00,,2013-07-22 08:32:00,
2013-07-22 04:43:00,68.0,64.0,29.98,West,270,0.0,0.0,87,0.00,,,0.00,,2013-07-22 08:43:00,
2013-07-22 05:02:00,68.0,64.0,29.98,West,270,0.0,0.0,87,0.00,,,0.00,,2013-07-22 09:02:00,
2013-07-22 05:11:00,68.0,64.0,29.98,West,270,0.0,0.0,87,0.00,,,0.00,,2013-07-22 09:11:00,
2013-07-22 05:22:00,68.0,64.0,29.98,West,270,0.0,0.0,87,0.00,,,0.00,,2013-07-22 09:22:00,
2013-07-22 05:33:00,68.0,64.0,29.99,West,270,0.0,0.0,87,0.00,,,0.00,,2013-07-22 09:33:00,
2013-07-22 05:42:00,68.0,64.0,29.99,West,270,0.0,0.0,87,0.00,,,0.00,,2013-07-22 09:42:00,
2013-07-22 06:02:00,68.0,64.0,29.99,West,270,0.0,0.0,87,0.00,,,0.00,,2013-07-22 10:02:00,
2013-07-22 06:11:00,69.0,65.0,29.99,West,270,0.0,0.0,87,0.00,,,0.00,,2013-07-22 10:11:00,
2013-07-22 06:32:00,69.0,65.0,29.99,West,270,0.0,0.0,86,0.00,,,0.00,,2013-07-22 10:32:00,
2013-07-22 06:43:00,69.0,64.0,29.99,West,270,0.0,0.0,85,0.00,,,0.00,,2013-07-22 10:43:00,
2013-07-22 07:02:00,70.0,65.0,29.99,West,270,0.0,0.0,84,0.00,,,0.00,,2013-07-22 11:02:00,
2013-07-22 07:11:00,70.0,65.0,29.99,West,270,0.0,0.0,83,0.00,,,0.00,,2013-07-22 11:11:00,
2013-07-22 07:23:00,70.0,65.0,29.99,West,270,0.0,0.0,83,0.00,,,0.00,,2013-07-22 11:23:00,
2013-07-22 07:32:00,71.0,65.0,29.99,West,270,0.0,0.0,81,0.00,,,0.00,,2013-07-22 11:32:00,
2013-07-22 07:43:00,71.0,65.0,29.99,West,270,0.0,0.0,81,0.00,,,0.00,,2013-07-22 11:43:00,
2013-07-22 08:02:00,72.0,65.0,30.00,West,270,0.0,0.0,79,0.00,,,0.00,,2013-07-22 12:02:00,
2013-07-22 08:12:00,73.0,66.0,30.00,West,270,0.0,0.0,80,0.00,,,0.00,,2013-07-22 12:12:00,
2013-07-22 08:33:00,74.0,67.0,30.00,West,270,0.0,0.0,80,0.00,,,0.00,,2013-07-22 12:33:00,
2013-07-22 08:43:00,74.0,67.0,30.00,West,270,0.0,0.0,80,0.00,,,0.00,,2013-07-22 12:43:00,
2013-07-22 09:01:00,75.0,68.0,29.99,West,270,0.0,0.0,78,0.00,,,0.00,,2013-07-22 13:01:00,
2013-07-22 09:11:00,75.0,68.0,29.99,West,270,0.0,0.0,78,0.00,,,0.00,,2013-07-22 13:11:00,
2013-07-22 09:22:00,76.0,68.0,29.99,West,270,0.0,0.0,77,0.00,,,0.00,,2013-07-22 13:22:00,
2013-07-22 09:43:00,77.0,69.0,29.99,West,270,0.0,0.0,76,0.00,,,0.00,,2013-07-22 13:43:00,
2013-07-22 09:53:00,77.0,69.0,29.99,West,270,0.0,0.0,76,0.00,,,0.00,,2013-07-22 13:53:00,
2013-07-22 10:11:00,78.0,68.0,29.99,West,270,0.0,0.0,71,0.00,,,0.00,,2013-07-22 14:11:00,
2013-07-22 10:22:00,78.0,67.0,29.99,West,270,0.0,0.0,70,0.00,,,0.00,,2013-07-22 14:22:00,
2013-07-22 10:32:00,79.0,68.0,29.99,West,270,0.0,0.0,69,0.00,,,0.00,,2013-07-22 14:32:00,
2013-07-22 10:43:00,80.0,68.0,29.99,West,270,0.0,0.0,66,0.00,,,0.00,,2013-07-22 14:43:00,
2013-07-22 10:53:00,80.0,68.0,29.99,West,270,0.0,0.0,66,0.00,,,0.00,,2013-07-22 14:53:00,
2013-07-22 11:11:00,80.0,68.0,29.99,West,270,0.0,0.0,66,0.00,,,0.00,,2013-07-22 15:11:00,
2013-07-22 11:22:00,80.0,68.0,29.98,West,270,0.0,0.0,66,0.00,,,0.00,,2013-07-22 15:22:00,
2013-07-22 11:33:00,80.0,67.0,29.98,West,270,0.0,0.0,65,0.00,,,0.00,,2013-07-22 15:33:00,
2013-07-22 11:43:00,81.0,68.0,29.98,West,270,0.0,0.0,64,0.00,,,0.00,,2013-07-22 15:43:00,
2013-07-22 11:52:00,81.0,68.0,29.98,West,270,0.0,0.0,64,0.00,,,0.00,,2013-07-22 15:52:00,
2013-07-22 12:01:00,81.0,68.0,29.98,West,270,0.0,0.0,65,0.00,,,0.00,,2013-07-22 16:01:00,
2013-07-22 12:11:00,81.0,68.0,29.98,West,270,0.0,0.0,65,0.00,,,0.00,,2013-07-22 16:11:00,
2013-07-22 12:22:00,81.0,68.0,29.98,West,270,0.0,0.0,65,0.00,,,0.00,,2013-07-22 16:22:00,
2013-07-22 12:43:00,81.0,67.0,29.97,West,270,0.0,0.0,63,0.00,,,0.00,,2013-07-22 16:43:00,
2013-07-22 12:52:00,81.0,67.0,29.97,West,270,0.0,0.0,63,0.00,,,0.00,,2013-07-22 16:52:00,
2013-07-22 13:02:00,81.0,68.0,29.96,West,270,0.0,0.0,65,0.00,,,0.00,,2013-07-22 17:02:00,
2013-07-22 13:11:00,81.0,68.0,29.96,West,270,0.0,0.0,65,0.00,,,0.00,,2013-07-22 17:11:00,
2013-07-22 13:32:00,83.0,68.0,29.95,West,270,0.0,0.0,61,0.00,,,0.00,,2013-07-22 17:32:00,
2013-07-22 13:43:00,83.0,68.0,29.95,West,270,0.0,0.0,61,0.00,,,0.00,,2013-07-22 17:43:00,
2013-07-22 14:16:00,84.0,69.0,29.93,West,270,0.0,0.0,61,0.00,,,0.00,,2013-07-22 18:16:00,
2013-07-22 14:28:00,84.0,69.0,29.94,West,270,0.0,0.0,60,0.00,,,0.00,,2013-07-22 18:28:00,
2013-07-22 14:51:00,76.0,70.0,29.94,West,270,0.0,0.0,81,0.00,,,0.02,,2013-07-22 18:51:00,
2013-07-22 15:45:00,77.0,69.0,29.93,West,270,0.0,0.0,77,0.00,,,0.02,,2013-07-22 19:45:00,
2013-07-22 16:16:00,77.0,70.0,29.92,West,270,0.0,0.0,78,0.00,,,0.02,,2013-07-22 20:16:00,
2013-07-22 16:52:00,75.0,69.0,29.91,West,270,0.0,0.0,82,0.00,,,0.02,,2013-07-22 20:52:00,
2013-07-22 17:12:00,75.0,70.0,29.90,West,270,0.0,0.0,84,0.00,,,0.03,,2013-07-22 21:12:00,
2013-07-22 17:32:00,75.0,71.0,29.90,West,270,0.0,0.0,86,0.00,,,0.03,,2013-07-22 21:32:00,
2013-07-22 17:43:00,75.0,71.0,29.90,West,270,0.0,0.0,87,0.00,,,0.04,,2013-07-22 21:43:00,
2013-07-22 17:52:00,75.0,71.0,29.90,West,270,0.0,0.0,87,0.00,,,0.04,,2013-07-22 21:52:00,
2013-07-22 18:11:00,75.0,71.0,29.89,West,270,0.0,0.0,88,0.00,,,0.05,,2013-07-22 22:11:00,
2013-07-22 18:32:00,76.0,73.0,29.88,West,270,0.0,0.0,90,0.00,,,0.05,,2013-07-22 22:32:00,
2013-07-22 18:43:00,76.0,73.0,29.88,West,270,0.0,0.0,90,0.00,,,0.05,,2013-07-22 22:43:00,
2013-07-22 18:52:00,76.0,73.0,29.88,West,270,0.0,0.0,90,0.00,,,0.05,,2013-07-22 22:52:00,
2013-07-22 19:01:00,76.0,73.0,29.88,West,270,0.0,0.0,90,0.00,,,0.05,,2013-07-22 23:01:00,
2013-07-22 19:11:00,76.0,73.0,29.88,West,270,0.0,0.0,90,0.00,,,0.05,,2013-07-22 23:11:00,
2013-07-22 19:32:00,76.0,73.0,29.89,West,270,0.0,0.0,90,0.00,,,0.06,,2013-07-22 23:32:00,
2013-07-22 19:43:00,75.0,72.0,29.89,West,270,0.0,0.0,90,0.00,,,0.08,,2013-07-22 23:43:00,
2013-07-22 20:01:00,75.0,72.0,29.89,West,270,0.0,0.0,90,0.00,,,0.10,,2013-07-23 00:01:00,
2013-07-22 20:12:00,75.0,72.0,29.89,West,270,0.0,0.0,90,0.00,,,0.10,,2013-07-23 00:12:00,
2013-07-22 20:32:00,75.0,72.0,29.88,West,270,0.0,0.0,91,0.00,,,0.11,,2013-07-23 00:32:00,
2013-07-22 21:11:00,75.0,73.0,29.88,West,270,0.0,0.0,92,0.00,,,0.11,,2013-07-23 01:11:00,
2013-07-22 21:32:00,75.0,73.0,29.88,West,270,0.0,0.0,92,0.00,,,0.11,,2013-07-23 01:32:00,
2013-07-22 22:02:00,75.0,73.0,29.87,West,270,0.0,0.0,92,0.00,,,0.16,,2013-07-23 02:02:00,
2013-07-22 22:11:00,75.0,73.0,29.86,West,270,0.0,0.0,92,0.00,,,0.28,,2013-07-23 02:11:00,
2013-07-22 22:43:00,74.0,72.0,29.86,West,270,0.0,0.0,93,0.00,,,0.85,,2013-07-23 02:43:00,
2013-07-22 23:11:00,73.0,71.0,29.86,West,270,0.0,0.0,93,0.00,,,0.88,,2013-07-23 03:11:00,
2013-07-22 23:33:00,73.0,71.0,29.85,West,270,0.0,0.0,93,0.00,,,0.89,,2013-07-23 03:33:00,
2013-07-22 23:43:00,73.0,71.0,29.85,West,270,0.0,0.0,93,0.00,,,0.89,,2013-07-23 03:43:00,
2013-07-22 23:52:00,73.0,71.0,29.85,West,270,0.0,0.0,93,0.00,,,0.89,,2013-07-23 03:52:00,